| time (UTC) | temp F | wind direction | speed MPH | gust MPH | rain 1hr in | rain 24hr in | rain mn in | humidity % | barometer mb |
| 20260509100203 | 46 | 110 | 0.0 | 0.0 | 0.00 | 0.00 | 0.00 | 99 | 1003.4 |
| 20260509095701 | 46 | 109 | 0.0 | 0.0 | 0.00 | 0.00 | 0.00 | 99 | 1003.6 |
| 20260509095158 | 46 | 112 | 0.0 | 0.0 | 0.00 | 0.00 | 0.00 | 99 | 1003.6 |
| 20260509094654 | 47 | 106 | 0.0 | 0.0 | 0.00 | 0.00 | 0.00 | 99 | 1003.5 |
| 20260509094151 | 47 | 106 | 0.0 | 0.0 | 0.00 | 0.00 | 0.00 | 99 | 1003.6 |
| 20260509093650 | 47 | 109 | 0.0 | 0.0 | 0.00 | 0.00 | 0.00 | 99 | 1003.8 |
| 20260509093146 | 47 | 110 | 0.0 | 0.0 | 0.00 | 0.00 | 0.00 | 99 | 1003.9 |
| 20260509092645 | 47 | 108 | 0.0 | 0.0 | 0.00 | 0.00 | 0.00 | 99 | 1003.7 |
| 20260509092143 | 47 | 107 | 0.0 | 0.0 | 0.00 | 0.00 | 0.00 | 99 | 1003.6 |
| 20260509091641 | 48 | 106 | 0.0 | 0.0 | 0.00 | 0.00 | 0.00 | 99 | 1003.6 |
| 20260509091136 | 48 | 106 | 0.0 | 0.0 | 0.00 | 0.00 | 0.00 | 99 | 1003.8 |
| 20260509090634 | 48 | 107 | 0.0 | 0.0 | 0.00 | 0.00 | 0.00 | 99 | 1003.8 |
| 20260509090131 | 48 | 106 | 0.0 | 0.0 | 0.00 | 0.00 | 0.00 | 99 | 1003.6 |
| 20260509085629 | 49 | 106 | 0.0 | 0.0 | 0.00 | 0.00 | 0.00 | 99 | 1003.8 |
| 20260509085124 | 49 | 105 | 0.0 | 0.0 | 0.00 | 0.00 | 0.00 | 99 | 1003.6 |
| 20260509084622 | 49 | 105 | 0.0 | 0.0 | 0.00 | 0.00 | 0.00 | 99 | 1003.8 |
| 20260509084119 | 49 | 105 | 0.0 | 0.0 | 0.00 | 0.00 | 0.00 | 99 | 1003.7 |
| 20260509083616 | 50 | 105 | 0.0 | 0.0 | 0.00 | 0.00 | 0.00 | 99 | 1003.6 |
| 20260509083112 | 50 | 112 | 0.0 | 0.0 | 0.00 | 0.00 | 0.00 | 99 | 1003.6 |
| 20260509082611 | 50 | 126 | 0.0 | 0.0 | 0.00 | 0.00 | 0.00 | 99 | 1003.5 |
| 20260509082107 | 50 | 113 | 0.0 | 0.0 | 0.00 | 0.00 | 0.00 | 99 | 1003.4 |
| 20260509081605 | 50 | 117 | 0.0 | 0.0 | 0.00 | 0.00 | 0.00 | 99 | 1003.6 |
| 20260509081102 | 50 | 112 | 0.0 | 0.0 | 0.00 | 0.00 | 0.00 | 99 | 1003.3 |
| 20260509080600 | 50 | 104 | 0.0 | 0.0 | 0.00 | 0.00 | 0.00 | 99 | 1003.6 |
| 20260509080057 | 51 | 92 | 1.0 | 1.0 | 0.00 | 0.00 | 0.00 | 99 | 1003.3 |
| 20260509075554 | 52 | 115 | 0.0 | 0.0 | 0.00 | 0.00 | 0.00 | 99 | 1003.4 |
| 20260509075052 | 51 | 115 | 0.0 | 0.0 | 0.00 | 0.00 | 0.00 | 99 | 1003.2 |
| 20260509074549 | 51 | 165 | 1.0 | 2.0 | 0.00 | 0.00 | 0.00 | 99 | 1003.3 |
| 20260509074045 | 51 | 128 | 0.0 | 0.0 | 0.00 | 0.00 | 0.00 | 99 | 1003.3 |
| 20260509073542 | 51 | 131 | 1.0 | 1.0 | 0.00 | 0.00 | 0.00 | 99 | 1003.5 |
| 20260509073038 | 51 | 137 | 1.0 | 1.0 | 0.00 | 0.00 | 0.00 | 99 | 1003.3 |
| 20260509072535 | 51 | 108 | 0.0 | 0.0 | 0.00 | 0.00 | 0.00 | 99 | 1003.3 |
| 20260509072032 | 51 | 107 | 0.0 | 0.0 | 0.00 | 0.00 | 0.00 | 99 | 1003.2 |
| 20260509071528 | 52 | 111 | 0.0 | 0.0 | 0.00 | 0.00 | 0.00 | 99 | 1003.3 |
| 20260509071026 | 52 | 103 | 0.0 | 0.0 | 0.00 | 0.00 | 0.00 | 99 | 1003.2 |
| 20260509070523 | 52 | 110 | 0.0 | 0.0 | 0.00 | 0.00 | 0.00 | 99 | 1003.3 |
| 20260509070019 | 53 | 118 | 0.0 | 0.0 | 0.00 | 0.00 | 0.00 | 99 | 1003.2 |
| 20260509065514 | 53 | 132 | 0.0 | 1.0 | 0.00 | 0.00 | 0.00 | 99 | 1003.4 |
| 20260509065011 | 53 | 196 | 3.0 | 3.0 | 0.00 | 0.00 | 0.00 | 99 | 1003.6 |
| 20260509064509 | 52 | 173 | 2.0 | 2.0 | 0.00 | 0.00 | 0.00 | 99 | 1003.5 |
| 20260509064007 | 52 | 128 | 0.0 | 0.0 | 0.00 | 0.00 | 0.00 | 99 | 1003.5 |
| 20260509063502 | 52 | 108 | 0.0 | 0.0 | 0.00 | 0.00 | 0.00 | 99 | 1003.5 |
| 20260509062959 | 52 | 116 | 0.0 | 0.0 | 0.00 | 0.00 | 0.00 | 99 | 1003.3 |
| 20260509062456 | 53 | 112 | 0.0 | 0.0 | 0.00 | 0.00 | 0.00 | 99 | 1003.5 |
| 20260509061954 | 53 | 120 | 0.0 | 0.0 | 0.00 | 0.00 | 0.00 | 99 | 1003.7 |
| 20260509061451 | 53 | 107 | 0.0 | 0.0 | 0.00 | 0.00 | 0.00 | 99 | 1003.5 |
| 20260509060948 | 53 | 107 | 0.0 | 0.0 | 0.00 | 0.00 | 0.00 | 99 | 1003.6 |
| 20260509060446 | 54 | 119 | 0.0 | 0.0 | 0.00 | 0.00 | 0.00 | 99 | 1003.6 |
| 20260509055941 | 54 | 120 | 0.0 | 0.0 | 0.00 | 0.00 | 0.00 | 99 | 1003.8 |
| 20260509055436 | 54 | 120 | 0.0 | 0.0 | 0.00 | 0.00 | 0.00 | 99 | 1003.7 |
| 20260509054933 | 54 | 113 | 0.0 | 0.0 | 0.00 | 0.00 | 0.00 | 99 | 1003.9 |
| 20260509054430 | 54 | 124 | 0.0 | 0.0 | 0.00 | 0.00 | 0.00 | 99 | 1003.9 |
| 20260509053928 | 54 | 115 | 0.0 | 0.0 | 0.00 | 0.00 | 0.00 | 99 | 1003.8 |
| 20260509053426 | 55 | 114 | 0.0 | 0.0 | 0.00 | 0.00 | 0.00 | 99 | 1003.6 |
| 20260509052923 | 55 | 130 | 0.0 | 1.0 | 0.00 | 0.00 | 0.00 | 99 | 1003.7 |
| 20260509052420 | 55 | 124 | 0.0 | 1.0 | 0.00 | 0.00 | 0.00 | 99 | 1003.9 |
| 20260509051918 | 55 | 118 | 0.0 | 0.0 | 0.00 | 0.00 | 0.00 | 99 | 1003.5 |
| 20260509051416 | 55 | 128 | 0.0 | 0.0 | 0.00 | 0.00 | 0.00 | 99 | 1003.3 |
| 20260509050912 | 56 | 134 | 0.0 | 1.0 | 0.00 | 0.00 | 0.00 | 99 | 1003.3 |
| 20260509050409 | 56 | 137 | 0.0 | 1.0 | 0.00 | 0.00 | 0.00 | 99 | 1003.3 |
| 20260509045906 | 56 | 121 | 0.0 | 0.0 | 0.00 | 0.05 | 0.05 | 99 | 1003.1 |
| 20260509045403 | 56 | 101 | 1.0 | 1.0 | 0.00 | 0.05 | 0.05 | 99 | 1003.4 |
| 20260509044900 | 56 | 153 | 1.0 | 2.0 | 0.00 | 0.05 | 0.05 | 99 | 1002.9 |
| 20260509044358 | 57 | 120 | 0.0 | 0.0 | 0.00 | 0.05 | 0.05 | 99 | 1003.2 |
| 20260509043854 | 57 | 138 | 1.0 | 1.0 | 0.00 | 0.05 | 0.05 | 99 | 1003.5 |
| 20260509043350 | 57 | 136 | 1.0 | 1.0 | 0.00 | 0.05 | 0.05 | 99 | 1003.3 |
| 20260509042846 | 58 | 156 | 0.0 | 1.0 | 0.00 | 0.05 | 0.05 | 99 | 1003.3 |
| 20260509042343 | 58 | 129 | 0.0 | 0.0 | 0.00 | 0.05 | 0.05 | 99 | 1003.4 |
| 20260509041840 | 58 | 123 | 0.0 | 0.0 | 0.00 | 0.05 | 0.05 | 99 | 1003.4 |
| 20260509041336 | 58 | 126 | 0.0 | 0.0 | 0.07 | 0.05 | 0.05 | 99 | 1003.2 |
| 20260509040835 | 59 | 173 | 1.0 | 1.0 | 0.07 | 0.05 | 0.05 | 99 | 1003.4 |
| 20260509040332 | 59 | 151 | 1.0 | 1.0 | 0.00 | 0.04 | 0.04 | 98 | 1003.4 |
| 20260509035829 | 59 | 144 | 1.0 | 1.0 | 0.05 | 0.04 | 0.04 | 98 | 1003.6 |
| 20260509035326 | 59 | 140 | 0.0 | 0.0 | 0.05 | 0.04 | 0.04 | 97 | 1003.6 |
| 20260509034822 | 59 | 143 | 1.0 | 1.0 | 0.00 | 0.03 | 0.03 | 97 | 1003.6 |
| 20260509034320 | 59 | 84 | 1.0 | 1.0 | 0.07 | 0.03 | 0.03 | 96 | 1003.6 |
| 20260509033817 | 60 | 134 | 1.0 | 1.0 | 0.07 | 0.03 | 0.03 | 96 | 1003.7 |
| 20260509033314 | 60 | 104 | 0.0 | 0.0 | 0.05 | 0.02 | 0.02 | 94 | 1004.6 |
| 20260509032811 | 60 | 120 | 0.0 | 1.0 | 0.05 | 0.02 | 0.02 | 93 | 1004.2 |
| 20260509032308 | 61 | 88 | 1.0 | 1.0 | 0.07 | 0.01 | 0.01 | 92 | 1004.3 |
| 20260509031806 | 61 | 105 | 0.0 | 1.0 | 0.07 | 0.01 | 0.01 | 90 | 1004.4 |
| 20260509031303 | 62 | 55 | 1.0 | 1.0 | 0.00 | 0.00 | 0.00 | 88 | 1004.3 |
| 20260509030800 | 63 | 105 | 2.0 | 2.0 | 0.00 | 0.00 | 0.00 | 85 | 1003.7 |
| 20260509030258 | 63 | 145 | 2.0 | 2.0 | 0.00 | 0.00 | 0.00 | 83 | 1003.5 |
| 20260509025754 | 63 | 126 | 2.0 | 2.0 | 0.00 | 0.00 | 0.00 | 81 | 1003.2 |
| 20260509025250 | 63 | 36 | 3.0 | 3.0 | 0.00 | 0.00 | 0.00 | 80 | 1003.2 |
| 20260509024746 | 63 | 115 | 0.0 | 0.0 | 0.00 | 0.00 | 0.00 | 81 | 1001.9 |
| 20260509024242 | 64 | 109 | 1.0 | 1.0 | 0.00 | 0.00 | 0.00 | 78 | 1001.7 |
| 20260509023739 | 64 | 117 | 0.0 | 0.0 | 0.00 | 0.00 | 0.00 | 76 | 1001.7 |
| 20260509023236 | 65 | 121 | 0.0 | 0.0 | 0.00 | 0.00 | 0.00 | 77 | 1001.7 |
| 20260509022732 | 65 | 133 | 1.0 | 1.0 | 0.00 | 0.00 | 0.00 | 73 | 1001.3 |
| 20260509022230 | 64 | 84 | 1.0 | 1.0 | 0.00 | 0.00 | 0.00 | 73 | 1001.2 |
| 20260509021727 | 64 | 112 | 0.0 | 1.0 | 0.00 | 0.00 | 0.00 | 74 | 1001.2 |
| 20260509021224 | 63 | 101 | 1.0 | 2.0 | 0.00 | 0.00 | 0.00 | 77 | 1001.2 |
| 20260509020722 | 63 | 117 | 0.0 | 0.0 | 0.00 | 0.00 | 0.00 | 79 | 1001.0 |
| 20260509020219 | 63 | 127 | 0.0 | 0.0 | 0.00 | 0.00 | 0.00 | 81 | 1001.1 |
| 20260509015717 | 63 | 133 | 1.0 | 1.0 | 0.00 | 0.00 | 0.00 | 80 | 1000.8 |
| 20260509015215 | 63 | 143 | 1.0 | 1.0 | 0.00 | 0.00 | 0.00 | 78 | 1000.7 |
| 20260509014711 | 64 | 118 | 0.0 | 0.0 | 0.00 | 0.00 | 0.00 | 79 | 1000.7 |
| 20260509014209 | 64 | 140 | 1.0 | 1.0 | 0.00 | 0.00 | 0.00 | 78 | 1000.9 |
| 20260509013705 | 64 | 128 | 0.0 | 1.0 | 0.00 | 0.00 | 0.00 | 78 | 1001.0 |
| 20260509013200 | 64 | 118 | 0.0 | 0.0 | 0.00 | 0.00 | 0.00 | 77 | 1000.9 |
| 20260509012657 | 64 | 121 | 0.0 | 0.0 | 0.00 | 0.00 | 0.00 | 77 | 1001.1 |
| 20260509012154 | 64 | 124 | 0.0 | 0.0 | 0.00 | 0.00 | 0.00 | 76 | 1001.1 |
| 20260509011652 | 64 | 109 | 0.0 | 1.0 | 0.00 | 0.00 | 0.00 | 77 | 1001.1 |
| 20260509011149 | 65 | 134 | 0.0 | 0.0 | 0.00 | 0.00 | 0.00 | 77 | 1001.1 |
| 20260509010647 | 65 | 127 | 0.0 | 0.0 | 0.00 | 0.00 | 0.00 | 75 | 1001.1 |
| 20260509010143 | 66 | 124 | 0.0 | 1.0 | 0.00 | 0.00 | 0.00 | 74 | 1001.3 |
| 20260509005641 | 66 | 151 | 1.0 | 1.0 | 0.00 | 0.00 | 0.00 | 72 | 1001.3 |
| 20260509005137 | 66 | 128 | 0.0 | 0.0 | 0.00 | 0.00 | 0.00 | 72 | 1001.5 |
| 20260509004633 | 66 | 117 | 0.0 | 0.0 | 0.00 | 0.00 | 0.00 | 70 | 1001.4 |
| 20260509004130 | 66 | 122 | 0.0 | 0.0 | 0.00 | 0.00 | 0.00 | 71 | 1001.4 |
| 20260509003628 | 67 | 155 | 1.0 | 1.0 | 0.00 | 0.00 | 0.00 | 73 | 1001.3 |
| 20260509003125 | 67 | 121 | 0.0 | 0.0 | 0.00 | 0.00 | 0.00 | 72 | 1001.0 |
| 20260509002623 | 67 | 116 | 0.0 | 0.0 | 0.00 | 0.00 | 0.00 | 71 | 1001.3 |
| 20260509002120 | 68 | 115 | 0.0 | 0.0 | 0.00 | 0.00 | 0.00 | 69 | 1001.0 |
| 20260509001618 | 68 | 115 | 0.0 | 0.0 | 0.00 | 0.00 | 0.00 | 69 | 1001.1 |
| 20260509001113 | 69 | 107 | 0.0 | 0.0 | 0.00 | 0.00 | 0.00 | 69 | 1001.1 |
| 20260509000612 | 69 | 113 | 0.0 | 1.0 | 0.00 | 0.00 | 0.00 | 67 | 1001.2 |
| 20260509000108 | 69 | 114 | 0.0 | 0.0 | 0.00 | 0.00 | 0.00 | 65 | 1001.4 |
| 20260508235605 | 69 | 112 | 0.0 | 0.0 | 0.00 | 0.00 | 0.00 | 63 | 1001.5 |
| 20260508235101 | 69 | 78 | 1.0 | 1.0 | 0.00 | 0.00 | 0.00 | 64 | 1001.5 |
| 20260508234559 | 69 | 90 | 1.0 | 1.0 | 0.00 | 0.00 | 0.00 | 64 | 1001.7 |
| 20260508234055 | 69 | 109 | 0.0 | 1.0 | 0.00 | 0.00 | 0.00 | 65 | 1001.7 |
| 20260508233555 | 69 | 106 | 0.0 | 0.0 | 0.00 | 0.00 | 0.00 | 67 | 1002.1 |
| 20260508233052 | 70 | 121 | 0.0 | 0.0 | 0.00 | 0.00 | 0.00 | 68 | 1002.1 |
| 20260508232549 | 71 | 132 | 0.0 | 1.0 | 0.00 | 0.00 | 0.00 | 68 | 1002.2 |
| 20260508232046 | 71 | 119 | 0.0 | 0.0 | 0.00 | 0.00 | 0.00 | 62 | 1002.1 |
| 20260508231543 | 72 | 132 | 0.0 | 0.0 | 0.00 | 0.00 | 0.00 | 61 | 1002.3 |
| 20260508231040 | 72 | 144 | 1.0 | 1.0 | 0.00 | 0.00 | 0.00 | 59 | 1002.4 |
| 20260508230537 | 72 | 148 | 0.0 | 1.0 | 0.00 | 0.00 | 0.00 | 56 | 1002.0 |
| 20260508230033 | 73 | 115 | 0.0 | 0.0 | 0.00 | 0.00 | 0.00 | 55 | 1002.1 |
| 20260508225531 | 73 | 118 | 0.0 | 1.0 | 0.00 | 0.00 | 0.00 | 53 | 1002.4 |
| 20260508225027 | 73 | 127 | 1.0 | 2.0 | 0.00 | 0.00 | 0.00 | 52 | 1002.1 |
| 20260508224525 | 73 | 148 | 1.0 | 2.0 | 0.00 | 0.00 | 0.00 | 53 | 1002.1 |
| 20260508224022 | 74 | 120 | 1.0 | 2.0 | 0.00 | 0.00 | 0.00 | 53 | 1001.9 |
| 20260508223520 | 74 | 88 | 1.0 | 1.0 | 0.00 | 0.00 | 0.00 | 51 | 1001.9 |
| 20260508223017 | 75 | 118 | 0.0 | 0.0 | 0.00 | 0.00 | 0.00 | 51 | 1001.8 |
| 20260508222515 | 77 | 130 | 0.0 | 1.0 | 0.00 | 0.00 | 0.00 | 50 | 1001.8 |
| 20260508222011 | 77 | 107 | 1.0 | 1.0 | 0.00 | 0.00 | 0.00 | 52 | 1001.8 |
| 20260508221508 | 78 | 38 | 2.0 | 3.0 | 0.00 | 0.00 | 0.00 | 50 | 1001.4 |
| 20260508221004 | 78 | 219 | 2.0 | 3.0 | 0.00 | 0.00 | 0.00 | 50 | 1001.3 |
| 20260508220500 | 78 | 163 | 2.0 | 2.0 | 0.00 | 0.00 | 0.00 | 49 | 1001.7 |
| 20260508215956 | 78 | 67 | 1.0 | 3.0 | 0.00 | 0.00 | 0.00 | 52 | 1001.7 |
| 20260508215453 | 78 | 358 | 3.0 | 6.0 | 0.00 | 0.00 | 0.00 | 50 | 1001.8 |
| 20260508214950 | 78 | 193 | 3.0 | 3.0 | 0.00 | 0.00 | 0.00 | 49 | 1001.7 |
| 20260508214448 | 78 | 292 | 3.0 | 3.0 | 0.00 | 0.00 | 0.00 | 47 | 1001.9 |
| 20260508213943 | 78 | 281 | 2.0 | 2.0 | 0.00 | 0.00 | 0.00 | 49 | 1001.8 |
| 20260508213441 | 79 | 242 | 2.0 | 3.0 | 0.00 | 0.00 | 0.00 | 49 | 1002.1 |
| 20260508212936 | 79 | 99 | 3.0 | 3.0 | 0.00 | 0.00 | 0.00 | 49 | 1001.7 |
| 20260508212434 | 80 | 121 | 1.0 | 1.0 | 0.00 | 0.00 | 0.00 | 48 | 1002.1 |
| 20260508211929 | 79 | 165 | 1.0 | 2.0 | 0.00 | 0.00 | 0.00 | 52 | 1002.3 |
| 20260508211425 | 80 | 354 | 4.0 | 5.0 | 0.00 | 0.00 | 0.00 | 46 | 1002.2 |
| 20260508210923 | 79 | 130 | 0.0 | 1.0 | 0.00 | 0.00 | 0.00 | 53 | 1002.3 |
| 20260508210419 | 79 | 124 | 0.0 | 1.0 | 0.00 | 0.00 | 0.00 | 53 | 1002.4 |
| 20260508205910 | 79 | 172 | 2.0 | 2.0 | 0.00 | 0.00 | 0.00 | 46 | 1002.6 |
| 20260508205407 | 78 | 335 | 3.0 | 5.0 | 0.00 | 0.00 | 0.00 | 47 | 1002.7 |
| 20260508204903 | 79 | 153 | 3.0 | 5.0 | 0.00 | 0.00 | 0.00 | 46 | 1002.8 |
| 20260508204401 | 78 | 160 | 3.0 | 5.0 | 0.00 | 0.00 | 0.00 | 49 | 1002.6 |
| 20260508203856 | 78 | 162 | 2.0 | 2.0 | 0.00 | 0.00 | 0.00 | 50 | 1002.8 |
| 20260508203352 | 78 | 44 | 2.0 | 2.0 | 0.00 | 0.00 | 0.00 | 52 | 1003.0 |
| 20260508202848 | 77 | 154 | 2.0 | 2.0 | 0.00 | 0.00 | 0.00 | 47 | 1002.9 |
| 20260508202346 | 77 | 329 | 2.0 | 3.0 | 0.00 | 0.00 | 0.00 | 49 | 1003.1 |
| 20260508201843 | 77 | 271 | 3.0 | 3.0 | 0.00 | 0.00 | 0.00 | 50 | 1003.5 |
| 20260508201340 | 77 | 114 | 0.0 | 1.0 | 0.00 | 0.00 | 0.00 | 54 | 1003.3 |
| 20260508200836 | 77 | 65 | 3.0 | 3.0 | 0.00 | 0.00 | 0.00 | 49 | 1003.3 |
| 20260508200333 | 76 | 226 | 5.0 | 6.0 | 0.00 | 0.00 | 0.00 | 48 | 1003.5 |
| 20260508195828 | 77 | 310 | 3.0 | 3.0 | 0.00 | 0.00 | 0.00 | 51 | 1003.6 |
| 20260508195326 | 77 | 168 | 4.0 | 6.0 | 0.00 | 0.00 | 0.00 | 50 | 1003.6 |
| 20260508194822 | 77 | 148 | 2.0 | 3.0 | 0.00 | 0.00 | 0.00 | 50 | 1003.8 |
| 20260508194319 | 77 | 225 | 4.0 | 5.0 | 0.00 | 0.00 | 0.00 | 48 | 1003.8 |
| 20260508193816 | 76 | 214 | 4.0 | 5.0 | 0.00 | 0.00 | 0.00 | 48 | 1003.8 |
| 20260508193313 | 75 | 151 | 0.0 | 1.0 | 0.00 | 0.00 | 0.00 | 52 | 1003.9 |
| 20260508192808 | 74 | 250 | 1.0 | 2.0 | 0.00 | 0.00 | 0.00 | 50 | 1003.9 |
| 20260508192306 | 73 | 189 | 3.0 | 6.0 | 0.00 | 0.00 | 0.00 | 51 | 1004.0 |
| 20260508191803 | 74 | 307 | 7.0 | 8.0 | 0.00 | 0.00 | 0.00 | 48 | 1004.2 |
| 20260508191300 | 74 | 138 | 2.0 | 2.0 | 0.00 | 0.00 | 0.00 | 50 | 1004.1 |
| 20260508190757 | 74 | 153 | 2.0 | 2.0 | 0.00 | 0.00 | 0.00 | 52 | 1004.2 |
| 20260508190253 | 74 | 229 | 3.0 | 5.0 | 0.00 | 0.00 | 0.00 | 50 | 1004.5 |
| 20260508185749 | 74 | 260 | 4.0 | 6.0 | 0.00 | 0.00 | 0.00 | 51 | 1004.4 |
| 20260508185247 | 74 | 128 | 1.0 | 2.0 | 0.00 | 0.00 | 0.00 | 52 | 1004.6 |
| 20260508184744 | 74 | 358 | 3.0 | 3.0 | 0.00 | 0.00 | 0.00 | 52 | 1004.5 |
| 20260508184241 | 75 | 301 | 4.0 | 9.0 | 0.00 | 0.00 | 0.00 | 50 | 1004.6 |
| 20260508183738 | 75 | 276 | 4.0 | 5.0 | 0.00 | 0.00 | 0.00 | 52 | 1004.5 |
| 20260508183234 | 75 | 352 | 2.0 | 3.0 | 0.00 | 0.00 | 0.00 | 56 | 1004.6 |
| 20260508182730 | 75 | 178 | 5.0 | 6.0 | 0.00 | 0.00 | 0.00 | 52 | 1005.0 |
| 20260508182227 | 75 | 168 | 2.0 | 2.0 | 0.00 | 0.00 | 0.00 | 55 | 1005.1 |
| 20260508181723 | 75 | 234 | 1.0 | 1.0 | 0.00 | 0.00 | 0.00 | 58 | 1005.0 |
| 20260508181220 | 74 | 276 | 3.0 | 5.0 | 0.00 | 0.00 | 0.00 | 52 | 1005.1 |
| 20260508180717 | 74 | 105 | 1.0 | 1.0 | 0.00 | 0.00 | 0.00 | 54 | 1005.0 |
| 20260508180214 | 74 | 156 | 1.0 | 1.0 | 0.00 | 0.00 | 0.00 | 52 | 1005.3 |
| 20260508175710 | 73 | 200 | 2.0 | 2.0 | 0.00 | 0.00 | 0.00 | 52 | 1005.2 |
| 20260508175207 | 73 | 310 | 3.0 | 3.0 | 0.00 | 0.00 | 0.00 | 57 | 1005.3 |
| 20260508174705 | 73 | 294 | 5.0 | 7.0 | 0.00 | 0.00 | 0.00 | 57 | 1005.5 |
| 20260508174201 | 73 | 195 | 4.0 | 5.0 | 0.00 | 0.00 | 0.00 | 58 | 1005.4 |
| 20260508173658 | 72 | 109 | 1.0 | 2.0 | 0.00 | 0.00 | 0.00 | 61 | 1005.6 |
| 20260508173154 | 71 | 112 | 0.0 | 1.0 | 0.00 | 0.00 | 0.00 | 58 | 1005.5 |
| 20260508172652 | 71 | 295 | 4.0 | 5.0 | 0.00 | 0.00 | 0.00 | 59 | 1005.9 |
| 20260508172148 | 70 | 116 | 1.0 | 2.0 | 0.00 | 0.00 | 0.00 | 63 | 1005.8 |
| 20260508171645 | 70 | 87 | 0.0 | 0.0 | 0.00 | 0.00 | 0.00 | 60 | 1005.9 |
| 20260508171141 | 70 | 195 | 3.0 | 3.0 | 0.00 | 0.00 | 0.00 | 61 | 1005.9 |
| 20260508170638 | 70 | 121 | 1.0 | 1.0 | 0.00 | 0.00 | 0.00 | 59 | 1006.1 |
| 20260508170136 | 70 | 89 | 3.0 | 3.0 | 0.00 | 0.00 | 0.00 | 58 | 1005.9 |
| 20260508165633 | 70 | 299 | 2.0 | 3.0 | 0.00 | 0.00 | 0.00 | 62 | 1006.1 |
| 20260508165130 | 69 | 115 | 2.0 | 2.0 | 0.00 | 0.00 | 0.00 | 59 | 1006.2 |
| 20260508164626 | 69 | 206 | 4.0 | 6.0 | 0.00 | 0.00 | 0.00 | 61 | 1006.5 |
| 20260508164123 | 69 | 41 | 3.0 | 3.0 | 0.00 | 0.00 | 0.00 | 64 | 1006.2 |
| 20260508163620 | 69 | 207 | 2.0 | 2.0 | 0.00 | 0.00 | 0.00 | 63 | 1006.4 |
| 20260508163117 | 69 | 163 | 3.0 | 3.0 | 0.00 | 0.00 | 0.00 | 62 | 1006.4 |
| 20260508162614 | 68 | 260 | 1.0 | 2.0 | 0.00 | 0.00 | 0.00 | 62 | 1006.6 |
| 20260508162111 | 68 | 289 | 3.0 | 5.0 | 0.00 | 0.00 | 0.00 | 60 | 1006.8 |
| 20260508161608 | 69 | 86 | 2.0 | 3.0 | 0.00 | 0.00 | 0.00 | 64 | 1006.7 |
| 20260508161105 | 68 | 203 | 2.0 | 3.0 | 0.00 | 0.00 | 0.00 | 63 | 1006.9 |
| 20260508160604 | 68 | 297 | 4.0 | 5.0 | 0.00 | 0.00 | 0.00 | 61 | 1006.8 |
| 20260508160100 | 68 | 160 | 2.0 | 3.0 | 0.00 | 0.00 | 0.00 | 61 | 1007.1 |
| 20260508155557 | 67 | 140 | 3.0 | 3.0 | 0.00 | 0.00 | 0.00 | 62 | 1006.9 |
| 20260508155054 | 67 | 135 | 3.0 | 6.0 | 0.00 | 0.00 | 0.00 | 62 | 1006.9 |
| 20260508154551 | 67 | 144 | 1.0 | 2.0 | 0.00 | 0.00 | 0.00 | 62 | 1007.0 |
| 20260508154048 | 67 | 323 | 3.0 | 3.0 | 0.00 | 0.00 | 0.00 | 63 | 1006.9 |
| 20260508153545 | 67 | 185 | 1.0 | 2.0 | 0.00 | 0.00 | 0.00 | 62 | 1006.7 |
| 20260508153041 | 66 | 111 | 1.0 | 2.0 | 0.00 | 0.00 | 0.00 | 63 | 1007.0 |
| 20260508152539 | 66 | 152 | 1.0 | 1.0 | 0.00 | 0.00 | 0.00 | 65 | 1007.0 |
| 20260508152034 | 66 | 194 | 5.0 | 6.0 | 0.00 | 0.00 | 0.00 | 65 | 1007.0 |
| 20260508151531 | 66 | 161 | 3.0 | 5.0 | 0.00 | 0.00 | 0.00 | 66 | 1007.0 |
| 20260508151028 | 65 | 170 | 3.0 | 3.0 | 0.00 | 0.00 | 0.00 | 66 | 1007.2 |
| 20260508150525 | 64 | 181 | 3.0 | 3.0 | 0.00 | 0.00 | 0.00 | 66 | 1007.5 |
| 20260508150020 | 64 | 245 | 2.0 | 3.0 | 0.00 | 0.00 | 0.00 | 68 | 1007.4 |
| 20260508145518 | 63 | 64 | 2.0 | 3.0 | 0.00 | 0.00 | 0.00 | 67 | 1007.4 |
| 20260508145014 | 62 | 199 | 5.0 | 6.0 | 0.00 | 0.00 | 0.00 | 67 | 1007.2 |
| 20260508144512 | 62 | 206 | 5.0 | 7.0 | 0.00 | 0.00 | 0.00 | 69 | 1007.4 |
| 20260508144009 | 61 | 185 | 6.0 | 8.0 | 0.00 | 0.00 | 0.00 | 69 | 1007.4 |
| 20260508143506 | 60 | 165 | 1.0 | 2.0 | 0.00 | 0.00 | 0.00 | 71 | 1007.4 |
| 20260508143002 | 61 | 196 | 3.0 | 5.0 | 0.00 | 0.00 | 0.00 | 70 | 1007.4 |
| 20260508142500 | 61 | 220 | 2.0 | 3.0 | 0.00 | 0.00 | 0.00 | 69 | 1007.6 |
| 20260508141956 | 61 | 167 | 3.0 | 5.0 | 0.00 | 0.00 | 0.00 | 68 | 1007.5 |
| 20260508141453 | 62 | 174 | 3.0 | 3.0 | 0.00 | 0.00 | 0.00 | 70 | 1007.6 |
| 20260508140951 | 61 | 116 | 1.0 | 1.0 | 0.00 | 0.00 | 0.00 | 72 | 1007.6 |
| 20260508140448 | 59 | 169 | 3.0 | 5.0 | 0.00 | 0.00 | 0.00 | 74 | 1007.7 |
| 20260508135943 | 59 | 119 | 0.0 | 1.0 | 0.00 | 0.00 | 0.00 | 74 | 1007.4 |
| 20260508135440 | 59 | 139 | 3.0 | 3.0 | 0.00 | 0.00 | 0.00 | 73 | 1007.8 |
| 20260508134936 | 58 | 346 | 1.0 | 2.0 | 0.00 | 0.00 | 0.00 | 74 | 1007.6 |
| 20260508134433 | 58 | 134 | 0.0 | 1.0 | 0.00 | 0.00 | 0.00 | 75 | 1007.8 |
| 20260508133929 | 59 | 127 | 2.0 | 3.0 | 0.00 | 0.00 | 0.00 | 74 | 1007.7 |
| 20260508133427 | 59 | 21 | 2.0 | 2.0 | 0.00 | 0.00 | 0.00 | 74 | 1007.6 |
| 20260508132924 | 59 | 121 | 0.0 | 1.0 | 0.00 | 0.00 | 0.00 | 75 | 1007.7 |
| 20260508132422 | 58 | 114 | 1.0 | 1.0 | 0.00 | 0.00 | 0.00 | 77 | 1007.6 |
| 20260508131918 | 57 | 104 | 0.0 | 0.0 | 0.00 | 0.00 | 0.00 | 80 | 1007.6 |
| 20260508131414 | 56 | 168 | 2.0 | 2.0 | 0.00 | 0.00 | 0.00 | 84 | 1007.8 |
| 20260508130911 | 54 | 76 | 1.0 | 2.0 | 0.00 | 0.00 | 0.00 | 84 | 1007.6 |
| 20260508130408 | 54 | 111 | 0.0 | 1.0 | 0.00 | 0.00 | 0.00 | 86 | 1007.5 |
| 20260508125903 | 54 | 50 | 0.0 | 1.0 | 0.00 | 0.00 | 0.00 | 87 | 1007.8 |
| 20260508125359 | 53 | 114 | 2.0 | 2.0 | 0.00 | 0.00 | 0.00 | 92 | 1007.6 |
| 20260508124858 | 52 | 303 | 2.0 | 2.0 | 0.00 | 0.00 | 0.00 | 96 | 1007.8 |
| 20260508124355 | 51 | 55 | 1.0 | 1.0 | 0.00 | 0.00 | 0.00 | 99 | 1007.6 |
| 20260508123853 | 50 | 93 | 0.0 | 0.0 | 0.00 | 0.00 | 0.00 | 99 | 1007.6 |
| 20260508123351 | 49 | 52 | 1.0 | 1.0 | 0.00 | 0.00 | 0.00 | 99 | 1007.5 |
| 20260508122847 | 48 | 119 | 0.0 | 1.0 | 0.00 | 0.00 | 0.00 | 99 | 1007.8 |
| 20260508122344 | 48 | 59 | 1.0 | 1.0 | 0.00 | 0.00 | 0.00 | 99 | 1007.6 |
| 20260508121841 | 47 | 100 | 0.0 | 0.0 | 0.00 | 0.00 | 0.00 | 99 | 1007.6 |
| 20260508121340 | 46 | 95 | 1.0 | 1.0 | 0.00 | 0.00 | 0.00 | 99 | 1007.8 |
| 20260508120837 | 45 | 91 | 0.0 | 1.0 | 0.00 | 0.00 | 0.00 | 99 | 1007.7 |
| 20260508120334 | 44 | 102 | 0.0 | 0.0 | 0.00 | 0.00 | 0.00 | 99 | 1007.8 |
| 20260508115832 | 43 | 96 | 0.0 | 1.0 | 0.00 | 0.00 | 0.00 | 99 | 1007.8 |
| 20260508115329 | 43 | 104 | 0.0 | 0.0 | 0.00 | 0.00 | 0.00 | 99 | 1007.7 |
| 20260508114826 | 42 | 103 | 0.0 | 0.0 | 0.00 | 0.00 | 0.00 | 99 | 1007.5 |
| 20260508114323 | 41 | 117 | 0.0 | 0.0 | 0.00 | 0.00 | 0.00 | 99 | 1007.5 |
| 20260508113819 | 41 | 120 | 1.0 | 1.0 | 0.00 | 0.00 | 0.00 | 99 | 1007.8 |
| 20260508113318 | 40 | 111 | 0.0 | 0.0 | 0.00 | 0.00 | 0.00 | 99 | 1007.5 |
| 20260508112813 | 40 | 103 | 0.0 | 0.0 | 0.00 | 0.00 | 0.00 | 99 | 1007.4 |
| 20260508112311 | 40 | 101 | 0.0 | 0.0 | 0.00 | 0.00 | 0.00 | 99 | 1007.4 |
| 20260508111807 | 39 | 101 | 0.0 | 0.0 | 0.00 | 0.00 | 0.00 | 99 | 1007.6 |
| 20260508111305 | 39 | 102 | 0.0 | 0.0 | 0.00 | 0.00 | 0.00 | 99 | 1007.5 |
| 20260508110802 | 40 | 101 | 0.0 | 0.0 | 0.00 | 0.00 | 0.00 | 99 | 1007.5 |
| 20260508110259 | 40 | 101 | 0.0 | 0.0 | 0.00 | 0.00 | 0.00 | 99 | 1007.5 |
| 20260508105759 | 40 | 101 | 0.0 | 0.0 | 0.00 | 0.00 | 0.00 | 99 | 1007.5 |
| 20260508105256 | 40 | 103 | 0.0 | 0.0 | 0.00 | 0.00 | 0.00 | 99 | 1007.5 |
| 20260508104753 | 41 | 103 | 0.0 | 0.0 | 0.00 | 0.00 | 0.00 | 99 | 1007.5 |
| 20260508104250 | 41 | 104 | 0.0 | 0.0 | 0.00 | 0.00 | 0.00 | 99 | 1007.5 |
| 20260508103747 | 41 | 100 | 0.0 | 0.0 | 0.00 | 0.00 | 0.00 | 99 | 1007.6 |
| 20260508103244 | 41 | 103 | 0.0 | 0.0 | 0.00 | 0.00 | 0.00 | 99 | 1007.5 |
| 20260508102741 | 41 | 105 | 0.0 | 0.0 | 0.00 | 0.00 | 0.00 | 99 | 1007.5 |
| 20260508102239 | 41 | 104 | 0.0 | 0.0 | 0.00 | 0.00 | 0.00 | 99 | 1007.3 |
| 20260508101736 | 40 | 110 | 0.0 | 0.0 | 0.00 | 0.00 | 0.00 | 99 | 1007.3 |
| 20260508101233 | 40 | 103 | 0.0 | 0.0 | 0.00 | 0.00 | 0.00 | 99 | 1007.2 |
| 20260508100732 | 39 | 103 | 0.0 | 0.0 | 0.00 | 0.00 | 0.00 | 99 | 1007.0 |